Wind_Speed
71 72 70 68 67 65 64 66 68 67 67 67 68 68 69 69 70 70 70 70 70 71 72 72 73 74 74 75 75 76 76 76 75 75 73 72 72 70 70 69 69 70 73 74 77 79 80 81 81 82 83 85 87 89 89 88 86 82 78 74 72 71 72
68 67 67 68 68 67 67 68 68 66 65 65 65 66 66 66 67 67 67 67 67 68 68 69 70 71 71 72 73 74 74 74 74 74 73 72 72 71 70 70 69 69 71 73 75 77 79 79 79 78 79 80 82 85 87 89 90 91 89 86 82 77 74
67 67 67 68 68 67 66 66 65 64 63 64 64 64 64 64 64 64 63 63 64 65 66 67 67 68 69 70 71 72 72 73 73 72 72 72 71 71 70 70 70 69 70 71 73 75 76 77 77 76 76 77 78 80 83 85 87 90 91 92 91 88 83
64 65 64 63 62 61 60 59 60 60 60 60 61 61 61 61 61 61 61 61 62 63 64 65 66 67 67 68 69 70 70 71 72 71 71 71 71 70 70 70 69 69 70 70 71 73 74 75 73 71 70 72 74 76 78 81 84 86 88 90 92 93 92
60 59 58 58 58 58 58 57 57 57 57 57 58 58 58 58 58 58 59 59 60 61 63 64 64 65 66 66 67 68 69 69 70 71 71 71 70 70 70 70 69 69 69 70 70 71 72 73 71 66 62 63 67 71 74 77 79 82 84 86 88 90 92
59 58 58 58 58 57 57 57 57 55 55 55 56 57 57 57 58 57 58 59 59 60 61 62 63 64 64 65 66 66 67 68 68 69 70 70 70 70 69 69 69 69 69 69 70 70 71 71 71 68 63 60 61 64 68 72 75 77 80 82 84 85 87
61 60 59 58 58 57 57 57 56 55 55 55 55 56 58 59 59 59 59 59 60 61 62 62 63 63 64 65 65 65 66 66 67 68 68 69 69 69 69 69 69 69 69 69 69 70 71 71 71 70 69 67 64 62 62 65 68 71 74 76 78 80 82
62 62 60 59 59 59 58 57 55 55 56 57 57 58 60 61 62 63 63 62 62 62 63 63 64 64 64 64 65 66 66 66 66 67 67 68 68 69 68 68 68 68 69 69 69 69 70 71 71 71 71 71 70 68 65 63 63 65 67 69 71 73 75
62 62 62 61 61 61 62 61 58 57 58 59 60 61 62 62 63 63 63 63 63 63 63 63 63 64 65 65 66 66 66 66 66 67 67 67 68 68 68 68 68 68 68 69 70 70 70 71 72 72 72 71 72 72 71 69 67 66 66 66 67 68 69
63 63 64 64 63 63 64 65 63 61 60 62 64 64 63 62 62 62 62 61 61 61 61 62 64 64 65 66 66 66 66 66 66 67 67 67 67 67 68 68 68 68 68 69 70 70 71 71 71 72 72 72 72 72 72 72 72 71 71 70 70 70 69
62 63 64 64 65 65 65 66 66 65 64 64 66 67 64 62 61 61 62 63 63 63 64 64 65 66 66 65 65 65 65 65 65 66 66 66 67 67 67 68 69 68 69 69 69 70 71 72 72 72 73 73 73 73 72 72 72 72 73 73 74 74 73
60 60 61 62 64 65 66 66 67 68 66 66 68 69 68 65 64 64 65 66 67 67 67 67 66 65 65 64 64 63 63 63 63 64 65 65 66 66 67 67 68 68 69 69 69 70 70 71 72 73 74 74 74 74 74 73 73 73 73 73 74 74 75
60 60 60 60 61 62 64 65 66 68 68 68 68 70 71 69 68 68 68 68 69 68 67 67 66 66 65 65 65 64 64 63 63 63 63 64 64 65 65 66 67 68 68 69 69 69 70 71 72 73 74 75 76 76 76 75 75 75 74 74 74 74 75
60 60 61 61 61 62 62 63 65 66 68 68 68 71 73 73 71 69 68 68 69 69 69 68 68 68 68 68 68 68 67 66 65 65 65 65 65 64 64 65 66 67 68 69 69 69 70 71 71 72 73 74 75 76 76 77 77 77 77 77 77 77 76
60 60 61 61 62 62 63 63 64 65 67 67 68 69 73 75 74 72 70 68 68 69 70 70 71 70 71 71 71 71 71 70 69 68 68 68 68 67 66 66 66 67 68 69 69 70 71 71 72 72 72 73 74 74 75 76 77 78 78 79 79 79 79
60 60 61 61 61 62 63 64 64 65 66 67 67 68 70 73 75 75 75 73 71 70 70 71 71 72 73 73 73 73 73 73 72 71 71 71 70 70 70 69 69 69 69 69 70 71 72 72 73 73 73 74 74 74 74 75 76 76 77 78 78 79 79
60 61 61 62 62 63 64 64 65 66 66 67 67 67 68 70 72 73 74 75 74 73 72 72 72 73 74 75 76 76 76 75 75 74 73 73 73 73 73 72 72 72 72 71 71 72 72 73 74 75 75 75 76 75 75 76 76 77 77 77 77 78 79
62 62 62 63 63 64 64 65 66 66 67 68 68 68 68 68 69 71 72 72 73 73 74 74 74 75 75 76 77 78 78 78 78 77 76 76 75 75 75 75 75 75 75 75 74 74 74 74 75 75 76 77 78 78 78 78 78 79 79 79 79 79 79
64 64 64 64 64 65 65 66 67 67 68 68 69 69 69 68 68 70 71 72 72 73 74 75 76 76 77 78 78 79 79 80 80 80 79 79 78 78 78 78 78 78 78 78 78 77 77 77 77 77 78 78 79 79 80 81 81 81 82 82 82 83 82
67 68 68 68 68 68 68 68 69 69 70 71 71 72 71 70 70 71 72 73 74 75 75 76 77 78 78 79 79 79 80 80 81 81 81 81 81 81 81 81 81 81 81 81 81 82 81 81 81 81 81 81 81 82 82 82 83 83 84 85 85 86 86
72 72 72 73 73 73 73 72 72 73 73 74 75 75 75 74 74 74 75 76 76 77 78 79 79 80 81 81 82 82 82 83 83 83 82 83 84 84 84 84 84 84 84 84 84 84 85 85 86 86 85 85 85 85 85 85 85 86 86 87 88 88 89
75 75 75 76 76 76 76 76 76 77 77 78 78 79 79 78 78 79 79 79 80 81 81 81 82 83 84 85 85 86 87 87 87 87 87 87 87 87 87 87 88 87 87 87 88 88 88 89 89 89 90 90 90 90 90 90 90 90 90 90 90 91 91
77 77 77 78 78 79 79 80 80 80 81 81 81 82 82 82 82 82 83 83 84 85 85 85 86 87 87 88 88 89 90 91 91 91 92 92 92 91 91 92 92 92 92 92 92 92 92 93 93 94 94 94 94 94 94 94 94 94 94 94 94 95 95
80 80 80 81 81 82 83 83 84 84 85 85 85 85 86 86 86 86 86 87 87 88 88 89 90 91 91 92 92 93 93 94 94 95 95 96 96 96 96 96 96 96 96 96 96 96 96 97 97 97 98 98 98 98 99 99 99 99 99 98 98 99 99
84 84 85 85 85 86 87 87 88 88 89 89 89 90 90 91 91 91 91 91 92 92 92 93 94 95 95 95 96 96 97 98 98 99 99 100 100 100 100 100 100 101 101 101 101 101 100 100 101 101 101 101 102 102 102 102 102 102 102 102 102 102 102
85 86 87 88 88 89 91 92 92 93 93 93 93 94 94 95 95 95 96 96 96 97 97 97 98 98 98 98 98 99 100 100 101 101 102 102 102 103 103 103 103 103 103 103 104 104 104 104 104 104 104 104 104 104 104 104 104 104 104 104 104 104 104
78 79 81 82 84 85 87 89 91 92 92 93 94 95 96 97 97 98 98 99 99 100 100 101 101 101 101 101 100 101 101 101 101 101 102 102 103 103 103 103 104 104 104 105 105 105 105 106 106 106 105 106 105 105 105 105 105 105 105 105 106 106 106
71 72 73 74 75 76 78 79 81 82 83 85 86 87 89 90 91 92 93 94 94 95 96 97 97 97 97 97 97 97 97 97 97 98 98 98 99 100 100 101 101 102 103 103 104 105 105 106 106 106 106 107 107 107 107 107 107 107 107 107 108 108 108
68 69 70 70 71 72 73 74 75 76 77 78 78 79 80 81 82 83 84 85 85 86 86 87 88 88 89 89 89 89 89 90 90 90 90 91 91 92 93 93 94 95 96 97 98 98 99 100 101 102 103 103 104 105 106 106 106 107 107 108 108 108 109
66 66 67 67 68 69 70 71 72 73 74 74 75 76 77 77 78 79 79 80 81 81 82 82 83 83 83 84 84 84 84 84 85 85 85 85 86 86 87 87 87 88 89 90 90 91 92 93 94 95 96 96 97 98 99 100 101 102 102 103 104 104 105
64 65 65 66 66 67 67 68 69 70 71 72 72 73 74 75 75 76 77 77 77 78 78 79 79 80 80 80 80 80 80 80 81 81 81 82 82 83 83 83 83 84 85 86 86 87 87 88 89 89 90 91 91 92 93 94 95 95 96 97 97 98 99
62 63 63 64 64 64 65 66 67 68 68 69 70 70 71 72 72 73 74 74 74 74 75 75 76 76 76 77 77 77 77 77 77 77 78 78 78 79 79 79 79 80 80 81 82 83 83 84 84 85 85 86 87 87 88 89 90 91 91 92 93 93 94
61 61 62 62 63 63 63 64 65 66 66 67 68 68 69 69 70 70 71 71 71 71 72 72 73 73 73 74 74 74 74 74 74 75 75 75 75 76 76 76 76 76 77 77 78 79 79 80 80 81 81 81 82 83 83 84 85 86 87 87 88 88 89
61 61 61 61 62 62 62 62 63 64 65 65 66 66 67 67 67 68 69 69 69 69 69 70 70 70 71 71 71 72 72 72 72 73 73 73 73 73 74 74 74 74 75 75 75 76 76 77 77 78 78 78 79 79 80 81 81 82 83 83 84 84 85
61 61 61 60 60 60 60 61 61 62 63 63 64 64 64 64 65 65 66 66 66 66 66 67 67 68 68 68 68 69 69 69 69 70 70 70 70 71 71 72 72 72 72 73 73 73 74 74 75 75 76 76 76 77 78 78 79 80 80 80 81 81 82
59 60 61 61 60 59 59 60 60 61 61 62 62 62 62 62 63 63 64 64 64 64 64 64 64 65 65 65 66 66 66 66 66 66 67 67 67 67 68 68 69 69 69 70 70 70 71 71 72 73 73 73 74 74 75 76 76 77 77 77 78 78 79
Wind_Direction
263 265 266 267 267 265 263 264 266 266 264 264 264 264 264 264 264 263 263 262 261 260 260 259 259 259 259 258 257 257 257 257 257 257 257 257 257 257 256 255 254 253 253 253 253 254 255 255 254 254 254 253 253 253 252 251 251 250 249 248 247 248 249
263 264 265 266 265 262 259 260 262 262 261 261 262 263 264 264 264 264 263 263 262 261 260 260 260 260 259 259 258 257 257 256 256 256 257 257 256 256 256 255 254 253 253 253 254 254 255 256 256 255 254 254 253 253 253 253 253 253 252 252 251 249 249
258 259 261 261 260 258 257 257 258 257 257 259 261 262 262 262 263 263 263 262 262 261 261 260 260 260 259 259 258 258 257 257 256 256 256 256 256 255 255 255 254 254 253 253 253 254 255 256 257 257 255 254 253 253 253 253 253 253 253 253 253 252 250
254 255 256 256 257 258 259 259 258 257 257 259 260 261 260 261 262 262 263 262 262 261 261 261 260 260 260 259 259 258 258 257 257 257 256 256 255 255 255 254 254 253 253 253 252 253 255 256 257 258 257 256 254 253 252 252 252 252 253 253 253 253 252
252 251 251 253 257 261 263 262 260 259 259 259 259 260 260 260 261 262 262 263 262 262 262 262 262 261 261 260 259 259 259 258 258 257 257 256 255 255 254 254 253 253 252 252 252 252 253 255 256 255 254 254 254 253 252 252 252 252 253 253 253 253 253
253 251 250 252 255 257 259 260 260 260 261 261 261 261 261 260 260 261 261 261 262 263 263 263 263 263 262 262 261 260 259 259 258 258 257 257 256 255 255 254 253 253 252 252 251 252 252 253 253 252 250 250 253 254 253 253 252 252 253 253 254 253 253
256 255 254 253 253 253 255 257 258 260 262 262 262 261 260 260 259 259 259 260 260 261 262 263 263 263 263 263 262 262 260 259 259 258 258 258 257 256 256 255 254 253 253 252 251 251 251 251 252 252 251 250 251 252 253 252 253 253 253 253 254 254 254
256 255 255 254 253 253 254 256 258 259 260 261 262 261 261 259 258 258 258 258 259 260 261 262 263 263 263 263 263 263 262 261 260 259 258 258 258 257 256 256 254 253 253 252 251 251 250 250 251 251 251 251 252 252 251 251 251 251 252 253 253 254 254
255 255 255 255 254 253 253 254 255 255 256 258 260 261 261 259 258 258 258 258 258 259 259 260 261 262 262 263 263 263 263 262 261 260 259 259 258 258 258 257 256 255 253 252 252 251 250 250 250 251 251 252 252 252 252 251 250 250 250 250 251 251 252
255 255 254 254 254 253 252 252 253 253 253 256 258 259 260 259 258 258 258 258 258 258 258 259 260 261 262 262 263 263 263 263 263 262 261 260 259 259 259 258 257 256 255 254 253 252 251 250 250 250 251 251 252 252 252 252 252 251 251 251 251 251 250
256 256 256 255 254 254 253 253 253 252 252 253 256 258 258 258 257 257 257 258 258 258 258 259 261 262 262 262 262 262 262 263 263 262 262 261 261 260 260 259 259 258 257 256 255 253 252 252 251 251 251 251 251 251 252 252 253 253 252 252 253 253 252
256 257 257 257 256 256 255 255 254 253 252 252 253 255 256 255 255 255 256 257 258 259 259 260 261 261 261 261 261 261 261 261 262 262 262 262 261 261 260 260 259 259 258 258 257 256 255 254 253 252 252 251 251 251 251 251 252 252 253 253 253 254 254
257 257 257 258 257 257 257 257 256 255 253 252 251 252 254 254 254 254 255 257 259 260 260 260 260 261 260 260 260 260 260 261 261 262 262 262 262 261 261 260 260 259 259 258 258 257 256 256 255 254 253 253 252 252 252 252 252 252 252 253 253 253 254
259 258 258 259 259 258 258 258 257 257 256 254 252 252 254 255 256 255 255 256 257 259 260 261 261 261 261 261 260 260 261 261 261 261 262 262 262 262 261 261 260 259 259 259 258 258 257 257 256 255 254 254 254 253 253 253 252 252 252 252 253 253 253
261 260 260 260 260 260 260 259 259 258 258 257 254 253 253 256 257 258 257 257 257 258 259 260 261 261 261 261 261 261 261 261 261 262 262 262 262 262 262 261 261 260 259 259 258 258 258 257 257 256 256 255 255 254 254 254 253 253 253 252 252 252 252
262 262 261 261 261 261 261 261 261 260 260 259 258 255 255 256 258 259 259 259 259 259 259 259 260 260 260 261 261 261 262 262 262 262 262 263 262 262 262 261 261 261 260 259 258 258 258 258 258 258 257 256 256 255 255 254 254 253 253 252 252 252 252
262 261 261 261 261 261 262 262 262 262 261 261 260 258 257 257 258 260 260 260 261 260 260 259 259 259 259 260 260 261 262 262 262 262 262 262 262 262 262 262 262 261 261 261 260 259 259 258 258 258 257 257 257 256 255 255 254 254 253 253 252 252 252
262 262 261 261 260 260 261 261 261 261 261 261 261 260 258 258 258 259 260 260 261 260 260 259 259 259 259 259 260 260 261 261 261 261 261 261 262 262 262 262 262 262 261 261 261 261 260 260 259 258 258 258 257 257 256 256 255 255 254 254 253 253 253
264 264 263 262 261 261 260 260 260 260 260 260 260 260 259 258 257 258 259 259 260 260 260 260 259 259 259 259 259 259 260 260 260 260 260 261 261 261 261 262 262 262 262 262 262 262 262 261 261 260 260 259 259 258 257 257 256 256 255 255 255 254 254
265 265 265 264 263 262 261 260 260 260 259 259 259 259 259 258 257 256 257 257 258 259 259 260 260 260 260 260 260 260 261 261 261 260 260 260 261 260 261 262 262 262 263 263 263 263 263 263 263 262 261 261 260 260 259 258 258 257 256 256 255 255 255
265 265 265 265 264 263 263 262 261 261 260 260 259 259 259 258 257 257 256 257 257 258 258 259 260 261 261 261 262 262 262 263 263 262 262 261 261 261 261 262 262 263 263 263 263 264 264 264 264 264 263 263 262 262 261 261 260 259 258 258 257 256 256
265 265 265 265 264 264 264 263 263 263 263 262 262 262 261 260 259 259 258 258 258 259 259 259 260 260 261 262 263 263 263 264 264 264 264 263 263 263 262 262 262 263 263 263 263 264 264 264 265 265 265 265 264 264 263 263 262 261 261 260 259 259 258
265 265 265 265 265 265 265 265 264 264 265 265 265 265 264 264 263 262 261 261 260 261 261 261 262 262 262 263 263 264 264 265 265 265 265 265 265 265 264 264 264 264 264 264 264 264 265 265 265 266 266 266 266 265 265 264 264 263 263 262 261 261 260
266 266 266 266 266 266 266 265 265 265 265 266 266 267 267 267 266 266 265 264 264 264 263 264 264 264 264 264 265 265 265 266 266 266 266 266 266 266 266 266 266 266 265 266 266 266 266 266 266 267 267 267 267 266 266 266 265 265 264 264 263 262 262
266 266 266 266 267 267 267 267 266 266 266 266 267 267 267 267 268 267 267 267 267 266 266 266 266 266 266 266 266 266 267 267 267 267 267 267 267 267 267 266 266 266 266 266 266 266 266 266 266 267 267 267 267 266 266 266 266 266 265 265 264 264 263
266 266 266 266 266 267 267 267 267 267 267 267 267 267 267 268 268 268 268 268 268 268 268 268 268 268 267 267 267 267 267 267 267 267 267 267 267 267 267 267 267 266 266 266 266 266 266 266 266 266 266 266 266 266 266 266 265 265 265 265 265 264 264
268 267 267 267 267 267 267 268 267 267 267 267 267 267 267 268 268 268 268 268 268 268 268 269 269 268 268 268 268 268 268 267 267 267 267 267 267 267 267 267 266 266 266 265 265 265 265 265 265 265 265 265 265 265 265 265 265 265 265 265 264 264 264
269 269 269 269 269 269 269 269 269 268 268 268 268 267 267 267 267 267 268 268 268 268 268 268 268 268 268 268 267 267 267 267 267 266 266 266 266 266 266 266 265 265 265 265 265 265 264 264 264 264 264 264 264 264 264 264 264 264 264 264 264 264 264
270 270 270 270 270 270 270 270 270 270 269 269 269 269 268 268 268 268 268 267 267 267 267 267 267 267 267 267 267 267 266 266 266 266 266 265 265 265 265 265 265 265 265 265 264 264 264 264 264 264 264 264 264 264 264 264 263 263 263 263 263 263 263
272 272 272 271 271 271 271 271 271 272 271 271 271 270 270 270 270 269 269 269 268 268 268 268 268 268 267 267 267 267 267 267 266 266 266 266 266 266 265 265 265 265 265 265 264 264 264 264 264 263 263 263 263 263 263 263 263 263 263 263 263 263 263
274 274 274 273 273 273 273 273 272 272 272 272 272 272 272 271 271 271 271 270 270 270 270 269 269 269 269 268 268 268 268 267 267 267 267 266 266 266 266 266 265 265 265 265 265 264 264 264 264 263 263 263 263 263 263 263 263 263 263 262 262 262 262
275 275 275 275 274 274 273 273 273 273 273 273 272 272 272 272 272 272 272 271 271 271 271 271 270 270 270 270 269 269 269 268 268 268 267 267 267 266 266 266 265 265 265 265 265 264 264 264 264 264 263 263 263 263 263 263 263 263 262 262 262 262 262
277 276 276 276 275 275 274 274 274 274 273 273 273 273 273 272 272 272 272 272 272 272 271 271 271 271 271 270 270 270 270 269 269 269 268 268 268 267 267 266 266 265 265 264 264 264 264 264 264 263 263 263 263 263 263 263 263 263 263 262 262 262 262
279 278 277 277 276 276 276 275 275 275 274 274 274 274 273 273 273 273 272 272 272 272 272 271 271 271 271 271 271 271 270 270 270 270 269 269 269 268 268 268 267 266 266 265 265 264 264 264 263 263 263 263 262 262 262 262 262 262 262 263 262 262 262
281 280 279 278 277 277 277 276 276 275 275 274 274 274 274 274 273 273 273 273 272 272 272 272 271 271 271 271 271 270 270 270 270 270 270 270 269 269 269 269 268 268 267 266 266 265 265 264 264 263 263 263 262 262 262 262 262 262 262 262 262 262 262
281 281 281 280 279 278 278 277 277 276 276 275 275 274 274 274 274 274 273 273 273 272 272 272 272 271 271 271 271 271 270 270 270 270 270 270 269 269 269 269 268 268 268 267 267 266 266 265 265 264 264 263 263 262 262 262 262 262 261 262 262 262 262
Height
5482 5482 5482 5482 5482 5483 5484 5484 5484 5484 5485 5486 5487 5487 5488 5488 5489 5490 5491 5492 5494 5495 5496 5497 5498 5499 5500 5502 5503 5504 5506 5507 5508 5509 5510 5511 5513 5514 5516 5517 5519 5520 5521 5523 5525 5526 5527 5529 5531 5533 5535 5538 5541 5543 5545 5547 5549 5552 5554 5556 5558 5560 5562
5472 5473 5472 5472 5473 5473 5474 5474 5474 5475 5476 5477 5477 5478 5478 5479 5480 5481 5482 5483 5484 5485 5486 5487 5488 5489 5490 5491 5493 5494 5495 5496 5498 5499 5500 5501 5503 5504 5506 5507 5508 5510 5511 5513 5515 5516 5517 5519 5520 5522 5524 5527 5529 5531 5533 5535 5538 5540 5542 5544 5547 5549 5552
5463 5463 5463 5463 5463 5464 5464 5464 5465 5465 5466 5467 5468 5469 5470 5470 5471 5471 5472 5473 5474 5475 5476 5477 5478 5479 5480 5481 5483 5484 5485 5486 5487 5489 5490 5491 5493 5494 5495 5497 5498 5500 5501 5502 5504 5506 5507 5508 5509 5511 5514 5516 5517 5519 5521 5523 5526 5528 5530 5533 5535 5538 5541
5453 5453 5453 5453 5454 5454 5455 5455 5456 5456 5457 5458 5459 5460 5461 5461 5462 5463 5463 5464 5465 5466 5466 5467 5468 5469 5470 5471 5472 5473 5475 5476 5477 5479 5480 5481 5483 5484 5485 5487 5488 5489 5491 5492 5494 5496 5497 5498 5499 5501 5503 5505 5507 5508 5510 5512 5514 5516 5519 5521 5523 5526 5529
5443 5443 5444 5444 5444 5445 5445 5446 5447 5448 5448 5449 5450 5451 5452 5452 5453 5453 5454 5455 5455 5456 5457 5458 5458 5459 5460 5461 5462 5464 5465 5466 5467 5468 5470 5471 5473 5474 5475 5477 5478 5479 5481 5482 5484 5486 5487 5488 5490 5492 5494 5495 5496 5498 5500 5501 5503 5505 5507 5509 5512 5514 5517
5434 5434 5434 5434 5435 5435 5436 5437 5438 5439 5440 5440 5441 5442 5442 5443 5444 5444 5445 5445 5446 5447 5448 5448 5449 5450 5451 5452 5453 5454 5455 5456 5457 5458 5460 5461 5462 5464 5465 5467 5468 5470 5471 5473 5474 5475 5477 5479 5481 5483 5484 5485 5487 5488 5489 5491 5493 5495 5497 5498 5500 5502 5505
5424 5424 5425 5425 5426 5426 5427 5428 5429 5430 5431 5432 5433 5433 5433 5434 5434 5435 5436 5436 5437 5438 5438 5439 5440 5440 5441 5442 5443 5444 5446 5447 5448 5449 5450 5451 5452 5454 5455 5457 5458 5460 5461 5463 5464 5466 5467 5469 5471 5473 5474 5476 5477 5479 5480 5482 5483 5485 5486 5488 5489 5491 5493
5414 5414 5415 5416 5416 5417 5418 5419 5420 5421 5423 5424 5424 5424 5424 5425 5425 5426 5426 5427 5428 5428 5429 5430 5430 5431 5432 5433 5434 5435 5436 5437 5438 5439 5440 5441 5442 5444 5445 5446 5448 5450 5451 5453 5454 5456 5458 5459 5461 5463 5464 5465 5468 5469 5471 5473 5475 5476 5477 5478 5479 5480 5483
5403 5404 5405 5405 5406 5408 5408 5409 5411 5413 5415 5415 5415 5414 5415 5415 5416 5416 5417 5418 5419 5419 5420 5420 5421 5422 5423 5424 5425 5426 5427 5428 5429 5430 5431 5432 5432 5433 5435 5436 5438 5440 5441 5442 5444 5446 5448 5449 5451 5453 5454 5456 5457 5459 5462 5464 5466 5467 5468 5469 5470 5470 5473
5394 5394 5395 5395 5396 5397 5398 5399 5401 5404 5407 5407 5406 5405 5405 5406 5406 5407 5408 5408 5409 5410 5410 5411 5412 5413 5413 5414 5415 5416 5417 5418 5419 5420 5421 5422 5423 5424 5425 5426 5427 5429 5430 5432 5434 5436 5437 5439 5441 5443 5444 5446 5447 5449 5452 5453 5455 5457 5458 5460 5460 5460 5463
5385 5385 5386 5386 5386 5387 5388 5389 5390 5393 5397 5399 5397 5395 5396 5396 5396 5397 5398 5399 5399 5400 5401 5402 5402 5403 5404 5405 5406 5407 5408 5409 5409 5410 5411 5412 5413 5414 5415 5416 5417 5418 5420 5421 5423 5425 5427 5428 5430 5433 5434 5435 5437 5439 5441 5443 5444 5446 5448 5449 5450 5450 5453
5375 5376 5376 5377 5377 5377 5378 5378 5379 5381 5385 5390 5390 5387 5385 5386 5387 5387 5388 5389 5389 5390 5391 5392 5392 5393 5394 5395 5396 5398 5399 5399 5400 5401 5401 5402 5403 5404 5405 5406 5407 5408 5409 5411 5412 5414 5416 5418 5420 5421 5423 5424 5427 5429 5431 5433 5434 5436 5437 5438 5439 5441 5443
5366 5366 5366 5367 5367 5368 5368 5368 5369 5371 5373 5378 5382 5380 5376 5376 5377 5378 5378 5379 5379 5380 5381 5382 5382 5383 5383 5385 5386 5388 5389 5390 5391 5391 5392 5392 5393 5394 5395 5396 5397 5398 5399 5400 5402 5403 5405 5407 5408 5410 5411 5413 5416 5418 5420 5422 5424 5425 5427 5428 5429 5431 5433
5357 5357 5357 5357 5357 5358 5358 5358 5359 5360 5361 5365 5371 5372 5369 5366 5366 5367 5368 5369 5369 5370 5371 5372 5372 5373 5373 5374 5375 5377 5378 5380 5381 5382 5382 5382 5383 5384 5385 5386 5387 5388 5389 5390 5392 5393 5394 5395 5396 5398 5401 5403 5405 5407 5409 5411 5413 5414 5416 5418 5418 5420 5422
5349 5348 5348 5348 5347 5348 5348 5348 5349 5349 5350 5353 5359 5362 5360 5358 5357 5357 5358 5359 5359 5360 5361 5362 5362 5363 5363 5363 5364 5365 5367 5368 5371 5372 5371 5372 5373 5375 5376 5376 5377 5377 5378 5380 5382 5383 5383 5384 5385 5387 5390 5391 5393 5396 5398 5399 5401 5402 5404 5406 5407 5409 5411
5340 5340 5339 5339 5338 5338 5338 5339 5339 5339 5339 5341 5346 5350 5350 5348 5348 5347 5347 5348 5349 5350 5351 5351 5352 5353 5353 5353 5353 5354 5355 5356 5359 5361 5361 5361 5362 5364 5365 5366 5366 5367 5368 5369 5371 5372 5373 5374 5375 5376 5378 5380 5381 5384 5386 5387 5389 5391 5392 5394 5396 5397 5399
5330 5330 5330 5330 5330 5329 5328 5329 5329 5329 5329 5330 5333 5337 5339 5339 5339 5337 5336 5337 5338 5339 5340 5341 5342 5342 5342 5342 5342 5342 5343 5344 5347 5350 5350 5350 5351 5353 5354 5355 5355 5356 5357 5358 5360 5361 5362 5364 5365 5365 5367 5368 5369 5372 5374 5375 5377 5379 5380 5382 5384 5385 5386
5320 5321 5321 5321 5321 5320 5320 5319 5319 5319 5319 5319 5320 5324 5327 5329 5329 5326 5325 5326 5327 5328 5329 5330 5330 5331 5331 5331 5330 5330 5330 5332 5334 5337 5339 5339 5341 5341 5341 5343 5344 5343 5344 5346 5348 5350 5351 5352 5353 5354 5356 5356 5357 5360 5361 5363 5365 5366 5367 5370 5372 5373 5375
5310 5310 5311 5311 5311 5311 5310 5310 5309 5308 5308 5308 5309 5310 5314 5318 5318 5316 5316 5317 5316 5316 5317 5318 5318 5319 5319 5320 5319 5318 5318 5319 5321 5324 5327 5328 5330 5330 5329 5330 5332 5331 5332 5335 5336 5337 5338 5340 5340 5342 5343 5344 5345 5347 5348 5351 5353 5354 5355 5357 5359 5360 5362
5300 5300 5300 5300 5300 5300 5300 5300 5299 5298 5297 5297 5297 5298 5301 5305 5307 5306 5305 5306 5305 5305 5305 5306 5306 5306 5307 5307 5306 5306 5306 5306 5307 5311 5316 5317 5317 5316 5317 5319 5319 5319 5321 5323 5323 5323 5325 5326 5327 5328 5330 5331 5333 5333 5335 5337 5339 5341 5343 5344 5346 5347 5348
5289 5289 5289 5289 5289 5289 5289 5289 5288 5287 5286 5286 5286 5286 5289 5292 5294 5294 5294 5295 5294 5293 5293 5294 5294 5293 5293 5294 5294 5294 5294 5293 5294 5298 5303 5303 5302 5304 5307 5307 5306 5307 5309 5310 5310 5311 5312 5312 5312 5313 5315 5317 5319 5320 5321 5323 5325 5327 5328 5330 5332 5333 5334
5278 5278 5277 5277 5277 5277 5277 5277 5276 5275 5275 5274 5274 5274 5276 5278 5280 5281 5281 5282 5282 5281 5281 5282 5281 5281 5280 5280 5280 5280 5280 5281 5281 5284 5287 5288 5288 5291 5293 5293 5293 5295 5295 5296 5297 5298 5298 5298 5298 5300 5301 5303 5304 5306 5307 5309 5310 5312 5314 5315 5317 5318 5320
5267 5266 5266 5265 5264 5264 5264 5264 5264 5263 5263 5262 5262 5262 5262 5264 5265 5266 5267 5268 5269 5269 5269 5268 5268 5267 5267 5267 5267 5267 5267 5268 5269 5269 5271 5272 5274 5276 5277 5278 5279 5280 5281 5282 5283 5283 5284 5284 5284 5286 5287 5288 5290 5291 5292 5294 5295 5296 5298 5300 5302 5303 5304
5254 5254 5254 5253 5252 5252 5251 5251 5251 5250 5250 5250 5250 5249 5248 5249 5250 5251 5252 5253 5254 5255 5255 5254 5253 5253 5253 5253 5254 5254 5254 5255 5255 5255 5256 5256 5258 5259 5261 5262 5264 5264 5265 5267 5268 5268 5269 5270 5270 5271 5272 5273 5275 5276 5277 5278 5279 5280 5282 5284 5285 5287 5288
5241 5241 5241 5241 5240 5239 5238 5237 5236 5237 5237 5238 5238 5236 5235 5235 5235 5236 5237 5238 5239 5239 5240 5239 5238 5238 5239 5240 5240 5241 5241 5240 5240 5240 5240 5241 5241 5242 5244 5246 5247 5248 5249 5251 5252 5253 5254 5255 5255 5255 5257 5258 5259 5260 5261 5262 5263 5265 5265 5266 5268 5270 5271
5229 5228 5228 5228 5227 5226 5224 5222 5221 5222 5223 5224 5223 5222 5222 5221 5221 5221 5221 5222 5223 5223 5223 5222 5221 5221 5223 5225 5226 5226 5225 5225 5225 5225 5225 5226 5226 5226 5227 5229 5230 5231 5232 5234 5235 5236 5237 5238 5239 5239 5241 5242 5243 5244 5244 5246 5248 5249 5249 5249 5251 5253 5254
5216 5216 5215 5215 5214 5213 5211 5209 5208 5208 5209 5209 5209 5208 5208 5207 5206 5206 5207 5207 5207 5208 5207 5205 5204 5205 5207 5208 5209 5209 5209 5209 5209 5209 5210 5210 5210 5210 5211 5212 5213 5214 5215 5216 5218 5219 5220 5221 5222 5223 5224 5225 5226 5227 5227 5229 5231 5232 5233 5233 5234 5236 5237
5205 5204 5203 5203 5202 5200 5199 5196 5195 5195 5195 5195 5194 5194 5194 5193 5192 5192 5192 5192 5192 5193 5192 5189 5189 5190 5191 5192 5192 5192 5192 5192 5193 5193 5193 5193 5193 5194 5194 5195 5195 5196 5197 5199 5200 5201 5202 5204 5205 5206 5207 5207 5209 5209 5210 5211 5214 5215 5216 5216 5217 5219 5220
5193 5192 5191 5191 5190 5188 5187 5185 5183 5182 5182 5181 5181 5180 5180 5179 5179 5178 5178 5178 5178 5178 5177 5175 5175 5175 5176 5176 5177 5177 5177 5177 5177 5177 5177 5177 5177 5178 5178 5178 5179 5180 5180 5181 5183 5184 5185 5186 5187 5188 5189 5190 5191 5191 5192 5193 5195 5196 5198 5199 5199 5200 5202
5182 5181 5180 5179 5178 5177 5175 5174 5172 5170 5169 5168 5168 5167 5166 5166 5165 5165 5164 5164 5164 5164 5163 5162 5161 5161 5161 5161 5162 5162 5162 5162 5162 5162 5162 5162 5162 5162 5163 5163 5164 5165 5165 5165 5166 5167 5169 5170 5171 5172 5172 5173 5174 5175 5175 5176 5177 5178 5180 5181 5181 5183 5184
5171 5169 5168 5168 5167 5166 5164 5163 5161 5159 5157 5156 5155 5155 5154 5153 5152 5151 5151 5150 5150 5150 5149 5148 5147 5147 5146 5147 5148 5147 5147 5148 5148 5147 5147 5147 5147 5148 5148 5149 5150 5150 5150 5150 5151 5152 5153 5154 5155 5156 5157 5158 5159 5159 5160 5159 5160 5161 5162 5164 5165 5166 5167
5160 5159 5157 5156 5156 5155 5153 5152 5150 5148 5147 5145 5144 5143 5142 5141 5140 5139 5138 5137 5137 5137 5136 5135 5134 5133 5133 5133 5133 5133 5133 5133 5133 5133 5133 5133 5133 5133 5134 5135 5136 5136 5137 5137 5137 5138 5139 5139 5140 5141 5142 5143 5144 5144 5145 5145 5144 5145 5146 5148 5149 5150 5151
5149 5148 5147 5145 5144 5143 5143 5141 5139 5137 5136 5134 5133 5132 5131 5130 5129 5127 5126 5125 5125 5125 5124 5122 5122 5121 5120 5120 5120 5120 5120 5120 5119 5119 5120 5120 5120 5120 5120 5121 5122 5122 5123 5124 5124 5125 5125 5125 5126 5127 5128 5129 5130 5130 5130 5130 5130 5130 5131 5133 5134 5136 5136
5137 5137 5136 5135 5133 5132 5131 5130 5128 5126 5124 5123 5121 5120 5119 5118 5117 5115 5114 5114 5113 5112 5112 5110 5110 5109 5108 5107 5107 5107 5107 5107 5106 5106 5107 5107 5107 5107 5106 5107 5107 5108 5109 5110 5111 5111 5112 5112 5113 5114 5115 5115 5116 5116 5116 5116 5116 5116 5117 5118 5120 5121 5122
5124 5124 5124 5123 5122 5121 5120 5118 5116 5114 5113 5111 5110 5109 5108 5107 5105 5103 5102 5101 5101 5100 5100 5099 5098 5097 5096 5095 5095 5095 5095 5095 5094 5094 5094 5094 5094 5094 5094 5093 5094 5094 5095 5096 5097 5097 5098 5098 5099 5100 5101 5102 5103 5102 5102 5103 5103 5103 5104 5105 5106 5107 5108
5115 5113 5112 5110 5110 5110 5109 5107 5105 5103 5101 5099 5098 5098 5097 5096 5094 5092 5090 5089 5089 5088 5088 5087 5086 5085 5084 5084 5083 5083 5083 5083 5083 5082 5082 5082 5082 5082 5081 5081 5081 5081 5082 5082 5083 5084 5084 5085 5085 5086 5087 5088 5089 5089 5088 5089 5090 5091 5092 5092 5093 5094 5094